ONEWEB-0309 (49095 NORAD) Tracking and Keplerian Element Data

This shows tracking and keplerian element data for the satellite.

Feedback or suggestion? Click here.




ElementValue
Catalog49095
NameONEWEB-0309
Epoch Orbit1130
Epoch Day300.91667824
Epoch Year2021
RAAN344.2874
Inclination87.5299
Eccentricity0.0022437
Argument of Perigee69.1035
Mean Anonmoly193.7619
Mean Motion14.30663117
Decay Rate-0.01349849
L11 49095U 21075W 21300.91667824 -.01349849 00000-0 -55538+0 0 9996
L22 49095 87.5299 344.2874 0022437 69.1035 193.7619 14.30663117 11306

Live tracking and technical data element details for ONEWEB-0309 (NORAD 49095). ONEWEB-0309 can be tracked NOW for your location showing map with azimuth and elevation plus other details from your city location.

Track the satellite on the map from your city or location and see movement details for azimuth, elevation, latitude, longitude, range, height, and movement on the map or in text.







IsCatalogInMostPopularTable: catalog: 49095, numindb: 14
Update: records affected: 1



GetName: 49095 ONEWEB-0309

Hit Count: updated at: Thu, 28 Oct 2021 11:03:31 GMT